| time (UTC) | temp C | wind direction | speed KPH | gust KPH | rain 1hr cm | rain 24hr cm | rain mn cm | humidity % | barometer mb |
| 20260505082325 | 14 | 209 | 3.2 | 6.4 | 0.00 | 0.00 | 0.00 | 83 | 1011.1 |
| 20260505081816 | 13 | 193 | 3.2 | 11.3 | 0.00 | 0.00 | 0.00 | 83 | 1011.1 |
| 20260505081328 | 13 | 188 | 3.2 | 11.3 | 0.00 | 0.00 | 0.00 | 83 | 1011.1 |
| 20260505080823 | 13 | 229 | 4.8 | 8.0 | 0.00 | 0.00 | 0.00 | 84 | 1011.1 |
| 20260505080315 | 13 | 241 | 3.2 | 8.0 | 0.00 | 0.00 | 0.00 | 84 | 1011.0 |
| 20260505075826 | 13 | 213 | 3.2 | 8.0 | 0.00 | 0.00 | 0.00 | 84 | 1011.1 |
| 20260505075322 | 13 | 227 | 3.2 | 6.4 | 0.00 | 0.00 | 0.00 | 84 | 1011.1 |
| 20260505074833 | 13 | 213 | 3.2 | 6.4 | 0.00 | 0.00 | 0.00 | 84 | 1011.1 |
| 20260505074346 | 13 | 211 | 3.2 | 8.0 | 0.00 | 0.00 | 0.00 | 84 | 1011.1 |
| 20260505073818 | 13 | 183 | 4.8 | 9.7 | 0.00 | 0.00 | 0.00 | 85 | 1011.1 |
| 20260505073330 | 13 | 204 | 4.8 | 9.7 | 0.00 | 0.00 | 0.00 | 85 | 1011.0 |
| 20260505072821 | 13 | 194 | 3.2 | 11.3 | 0.00 | 0.00 | 0.00 | 85 | 1011.1 |
| 20260505072332 | 13 | 212 | 4.8 | 11.3 | 0.00 | 0.00 | 0.00 | 86 | 1011.0 |
| 20260505071844 | 13 | 235 | 3.2 | 8.0 | 0.00 | 0.00 | 0.00 | 86 | 1011.0 |
| 20260505071315 | 13 | 244 | 3.2 | 9.7 | 0.00 | 0.00 | 0.00 | 86 | 1010.9 |
| 20260505070826 | 13 | 180 | 3.2 | 11.3 | 0.00 | 0.00 | 0.00 | 86 | 1010.9 |
| 20260505070320 | 13 | 215 | 3.2 | 11.3 | 0.00 | 0.00 | 0.00 | 86 | 1010.9 |
| 20260505065831 | 13 | 214 | 3.2 | 8.0 | 0.00 | 0.00 | 0.00 | 86 | 1011.0 |
| 20260505065342 | 13 | 197 | 3.2 | 8.0 | 0.00 | 0.00 | 0.00 | 87 | 1010.9 |
| 20260505064852 | 13 | 199 | 3.2 | 8.0 | 0.00 | 0.00 | 0.00 | 87 | 1011.0 |
| 20260505064323 | 13 | 228 | 1.6 | 6.4 | 0.00 | 0.00 | 0.00 | 87 | 1011.0 |
| 20260505063815 | 13 | 216 | 3.2 | 6.4 | 0.00 | 0.00 | 0.00 | 87 | 1011.0 |
| 20260505063327 | 13 | 188 | 3.2 | 4.8 | 0.00 | 0.00 | 0.00 | 87 | 1011.0 |
| 20260505062838 | 13 | 223 | 1.6 | 6.4 | 0.00 | 0.00 | 0.00 | 87 | 1011.0 |
| 20260505062329 | 13 | 229 | 1.6 | 8.0 | 0.00 | 0.00 | 0.00 | 87 | 1011.0 |
| 20260505061820 | 13 | 232 | 3.2 | 8.0 | 0.00 | 0.00 | 0.00 | 87 | 1011.1 |
| 20260505061314 | 13 | 221 | 1.6 | 14.5 | 0.00 | 0.00 | 0.00 | 87 | 1011.0 |
| 20260505060828 | 13 | 189 | 4.8 | 14.5 | 0.00 | 0.00 | 0.00 | 87 | 1011.1 |
| 20260505060319 | 13 | 206 | 4.8 | 16.1 | 0.00 | 0.00 | 0.00 | 87 | 1011.1 |
| 20260505055831 | 13 | 204 | 6.4 | 16.1 | 0.00 | 0.00 | 0.00 | 87 | 1011.3 |
| 20260505055322 | 13 | 190 | 6.4 | 20.9 | 0.00 | 0.00 | 0.00 | 86 | 1011.2 |
| 20260505054854 | 13 | 248 | 6.4 | 20.9 | 0.00 | 0.00 | 0.00 | 86 | 1011.3 |
| 20260505054324 | 13 | 221 | 6.4 | 22.5 | 0.00 | 0.00 | 0.00 | 86 | 1011.2 |
| 20260505053818 | 13 | 159 | 9.7 | 24.1 | 0.00 | 0.00 | 0.00 | 86 | 1011.2 |
| 20260505053350 | 13 | 155 | 8.0 | 19.3 | 0.00 | 0.00 | 0.00 | 86 | 1011.1 |
| 20260505052840 | 13 | 202 | 8.0 | 19.3 | 0.00 | 0.00 | 0.00 | 86 | 1011.2 |
| 20260505052334 | 13 | 189 | 8.0 | 22.5 | 0.00 | 0.00 | 0.00 | 86 | 1011.3 |
| 20260505051825 | 13 | 188 | 9.7 | 22.5 | 0.00 | 0.00 | 0.00 | 86 | 1011.3 |
| 20260505051317 | 13 | 127 | 6.4 | 19.3 | 0.00 | 0.00 | 0.00 | 86 | 1011.4 |
| 20260505050848 | 13 | 162 | 9.7 | 19.3 | 0.00 | 0.00 | 0.00 | 86 | 1011.4 |
| 20260505050339 | 13 | 175 | 8.0 | 17.7 | 0.00 | 0.00 | 0.00 | 86 | 1011.5 |
| 20260505041324 | 14 | 159 | 8.0 | 17.7 | 0.00 | 0.00 | 0.00 | 84 | 1011.7 |
| 20260505040819 | 14 | 188 | 9.7 | 19.3 | 0.00 | 0.00 | 0.00 | 84 | 1011.6 |
| 20260505040331 | 14 | 187 | 6.4 | 19.3 | 0.00 | 0.00 | 0.00 | 84 | 1011.6 |
| 20260505035821 | 14 | 212 | 8.0 | 19.3 | 0.00 | 0.00 | 0.00 | 83 | 1011.7 |
| 20260505035353 | 14 | 196 | 8.0 | 17.7 | 0.00 | 0.00 | 0.00 | 83 | 1011.7 |
| 20260505034824 | 14 | 188 | 6.4 | 19.3 | 0.00 | 0.00 | 0.00 | 83 | 1011.7 |
| 20260505034315 | 14 | 155 | 6.4 | 16.1 | 0.00 | 0.00 | 0.00 | 82 | 1011.7 |
| 20260505033847 | 14 | 218 | 6.4 | 16.1 | 0.00 | 0.00 | 0.00 | 82 | 1011.7 |
| 20260505033324 | 14 | 236 | 6.4 | 17.7 | 0.00 | 0.00 | 0.00 | 81 | 1011.6 |
| 20260505032855 | 14 | 207 | 4.8 | 17.7 | 0.00 | 0.00 | 0.00 | 81 | 1011.7 |
| 20260505032327 | 15 | 192 | 9.7 | 17.7 | 0.00 | 0.00 | 0.00 | 80 | 1011.8 |
| 20260505031818 | 15 | 197 | 4.8 | 17.7 | 0.00 | 0.00 | 0.00 | 80 | 1011.9 |
| 20260505031330 | 15 | 229 | 6.4 | 17.7 | 0.00 | 0.00 | 0.00 | 79 | 1011.9 |
| 20260505030824 | 15 | 216 | 8.0 | 17.7 | 0.00 | 0.00 | 0.00 | 79 | 1011.9 |
| 20260505030314 | 15 | 207 | 6.4 | 19.3 | 0.00 | 0.00 | 0.00 | 79 | 1011.8 |
| 20260505025828 | 15 | 200 | 11.3 | 19.3 | 0.00 | 0.00 | 0.00 | 78 | 1011.9 |
| 20260505025324 | 15 | 154 | 6.4 | 17.7 | 0.00 | 0.00 | 0.00 | 78 | 1012.0 |
| 20260505024815 | 15 | 205 | 8.0 | 17.7 | 0.00 | 0.00 | 0.00 | 78 | 1011.9 |
| 20260505024330 | 15 | 186 | 6.4 | 14.5 | 0.00 | 0.00 | 0.00 | 78 | 1011.9 |
| 20260505023822 | 15 | 188 | 6.4 | 14.5 | 0.00 | 0.00 | 0.00 | 78 | 1012.0 |
| 20260505023353 | 15 | 187 | 8.0 | 14.5 | 0.00 | 0.00 | 0.00 | 78 | 1012.0 |
| 20260505022823 | 15 | 182 | 4.8 | 11.3 | 0.00 | 0.00 | 0.00 | 77 | 1012.0 |
| 20260505022319 | 15 | 209 | 4.8 | 11.3 | 0.00 | 0.00 | 0.00 | 77 | 1012.1 |
| 20260505021831 | 15 | 204 | 4.8 | 12.9 | 0.00 | 0.00 | 0.00 | 77 | 1012.1 |
| 20260505021322 | 15 | 203 | 4.8 | 12.9 | 0.00 | 0.00 | 0.00 | 77 | 1012.1 |
| 20260505020817 | 15 | 195 | 6.4 | 12.9 | 0.00 | 0.00 | 0.00 | 77 | 1012.1 |
| 20260505020311 | 15 | 183 | 6.4 | 12.9 | 0.00 | 0.00 | 0.00 | 77 | 1012.1 |
| 20260505015826 | 15 | 186 | 4.8 | 12.9 | 0.00 | 0.00 | 0.00 | 77 | 1012.1 |
| 20260505015319 | 15 | 200 | 6.4 | 11.3 | 0.00 | 0.00 | 0.00 | 77 | 1012.0 |
| 20260505014829 | 15 | 211 | 4.8 | 11.3 | 0.00 | 0.00 | 0.00 | 77 | 1012.0 |
| 20260505014341 | 15 | 206 | 4.8 | 11.3 | 0.00 | 0.00 | 0.00 | 78 | 1012.0 |
| 20260505013831 | 15 | 213 | 4.8 | 17.7 | 0.00 | 0.00 | 0.00 | 78 | 1012.0 |
| 20260505013323 | 15 | 230 | 6.4 | 17.7 | 0.00 | 0.00 | 0.00 | 78 | 1012.0 |
| 20260505012818 | 15 | 174 | 8.0 | 12.9 | 0.00 | 0.00 | 0.00 | 79 | 1012.0 |
| 20260505012333 | 15 | 155 | 6.4 | 12.9 | 0.00 | 0.00 | 0.00 | 79 | 1011.9 |
| 20260505011316 | 15 | 180 | 8.0 | 17.7 | 0.00 | 0.00 | 0.00 | 80 | 1011.9 |
| 20260505010338 | 14 | 161 | 6.4 | 12.9 | 0.00 | 0.00 | 0.00 | 80 | 1011.8 |
| 20260505005849 | 15 | 187 | 4.8 | 19.3 | 0.00 | 0.00 | 0.00 | 80 | 1011.8 |
| 20260505005340 | 14 | 179 | 6.4 | 19.3 | 0.00 | 0.00 | 0.00 | 80 | 1011.7 |
| 20260505004833 | 15 | 167 | 9.7 | 17.7 | 0.00 | 0.00 | 0.00 | 80 | 1011.6 |
| 20260505004325 | 15 | 173 | 6.4 | 16.1 | 0.00 | 0.00 | 0.00 | 80 | 1011.6 |
| 20260505003823 | 15 | 214 | 8.0 | 17.7 | 0.00 | 0.00 | 0.00 | 79 | 1011.5 |
| 20260505003315 | 15 | 185 | 8.0 | 17.7 | 0.00 | 0.00 | 0.00 | 79 | 1011.5 |
| 20260505002828 | 15 | 175 | 8.0 | 17.7 | 0.00 | 0.00 | 0.00 | 79 | 1011.5 |
| 20260505002319 | 15 | 195 | 6.4 | 20.9 | 0.00 | 0.00 | 0.00 | 79 | 1011.3 |
| 20260505001831 | 15 | 169 | 11.3 | 20.9 | 0.00 | 0.00 | 0.00 | 78 | 1011.2 |
| 20260505001325 | 15 | 209 | 9.7 | 20.9 | 0.00 | 0.00 | 0.00 | 78 | 1011.2 |
| 20260505000816 | 15 | 165 | 8.0 | 20.9 | 0.00 | 0.00 | 0.00 | 77 | 1011.0 |
| 20260505000327 | 15 | 207 | 4.8 | 17.7 | 0.00 | 0.00 | 0.00 | 76 | 1011.0 |
| 20260504235823 | 15 | 207 | 8.0 | 24.1 | 0.00 | 0.00 | 0.00 | 76 | 1011.0 |
| 20260504235333 | 15 | 182 | 9.7 | 25.7 | 0.00 | 0.00 | 0.00 | 75 | 1010.9 |
| 20260504234825 | 15 | 200 | 8.0 | 30.6 | 0.00 | 0.00 | 0.00 | 75 | 1011.0 |
| 20260504234339 | 15 | 199 | 8.0 | 30.6 | 0.00 | 0.00 | 0.00 | 74 | 1010.9 |
| 20260504233829 | 16 | 178 | 9.7 | 27.4 | 0.00 | 0.00 | 0.00 | 73 | 1010.9 |
| 20260504233320 | 16 | 207 | 12.9 | 27.4 | 0.00 | 0.00 | 0.00 | 73 | 1010.8 |
| 20260504232815 | 16 | 138 | 6.4 | 22.5 | 0.00 | 0.00 | 0.00 | 72 | 1010.8 |
| 20260504232326 | 16 | 167 | 9.7 | 27.4 | 0.00 | 0.00 | 0.00 | 71 | 1010.7 |
| 20260504231819 | 16 | 163 | 9.7 | 27.4 | 0.00 | 0.00 | 0.00 | 70 | 1010.7 |
| 20260504231316 | 16 | 198 | 11.3 | 27.4 | 0.00 | 0.00 | 0.00 | 69 | 1010.7 |
| 20260504230827 | 16 | 175 | 12.9 | 25.7 | 0.00 | 0.00 | 0.00 | 69 | 1010.6 |
| 20260504230318 | 17 | 194 | 8.0 | 22.5 | 0.00 | 0.00 | 0.00 | 68 | 1010.6 |
| 20260504225849 | 17 | 164 | 8.0 | 29.0 | 0.00 | 0.00 | 0.00 | 67 | 1010.6 |
| 20260504225320 | 17 | 200 | 6.4 | 27.4 | 0.00 | 0.00 | 0.00 | 66 | 1010.6 |
| 20260504224831 | 17 | 200 | 9.7 | 29.0 | 0.00 | 0.00 | 0.00 | 65 | 1010.5 |
| 20260504224323 | 17 | 188 | 12.9 | 29.0 | 0.00 | 0.00 | 0.00 | 64 | 1010.5 |
| 20260504223834 | 17 | 213 | 9.7 | 27.4 | 0.00 | 0.00 | 0.00 | 63 | 1010.5 |
| 20260504223346 | 17 | 153 | 9.7 | 27.4 | 0.00 | 0.00 | 0.00 | 64 | 1010.5 |
| 20260504222819 | 17 | 140 | 12.9 | 32.2 | 0.00 | 0.00 | 0.00 | 64 | 1010.4 |
| 20260504222334 | 17 | 184 | 14.5 | 32.2 | 0.00 | 0.00 | 0.00 | 64 | 1010.5 |
| 20260504221824 | 17 | 172 | 11.3 | 35.4 | 0.00 | 0.00 | 0.00 | 64 | 1010.4 |
| 20260504221315 | 18 | 176 | 12.9 | 29.0 | 0.00 | 0.00 | 0.00 | 62 | 1010.5 |
| 20260504220827 | 18 | 180 | 12.9 | 35.4 | 0.00 | 0.00 | 0.00 | 61 | 1010.5 |
| 20260504220319 | 18 | 139 | 12.9 | 35.4 | 0.00 | 0.00 | 0.00 | 60 | 1010.5 |
| 20260504215831 | 18 | 145 | 16.1 | 33.8 | 0.00 | 0.00 | 0.00 | 60 | 1010.5 |
| 20260504215326 | 18 | 178 | 19.3 | 30.6 | 0.00 | 0.00 | 0.00 | 59 | 1010.5 |
| 20260504214823 | 18 | 200 | 12.9 | 33.8 | 0.00 | 0.00 | 0.00 | 57 | 1010.5 |
| 20260504214314 | 18 | 209 | 16.1 | 33.8 | 0.00 | 0.00 | 0.00 | 57 | 1010.5 |
| 20260504213828 | 18 | 288 | 9.7 | 30.6 | 0.00 | 0.00 | 0.00 | 56 | 1010.6 |
| 20260504213319 | 18 | 217 | 14.5 | 35.4 | 0.00 | 0.00 | 0.00 | 55 | 1010.7 |
| 20260504212831 | 18 | 215 | 17.7 | 35.4 | 0.00 | 0.00 | 0.00 | 55 | 1010.6 |
| 20260504212323 | 18 | 212 | 11.3 | 33.8 | 0.00 | 0.00 | 0.00 | 56 | 1010.6 |
| 20260504211836 | 18 | 157 | 16.1 | 30.6 | 0.00 | 0.00 | 0.00 | 56 | 1010.5 |
| 20260504211329 | 18 | 194 | 12.9 | 27.4 | 0.00 | 0.00 | 0.00 | 56 | 1010.6 |
| 20260504210821 | 18 | 178 | 14.5 | 27.4 | 0.00 | 0.00 | 0.00 | 56 | 1010.5 |
| 20260504210316 | 18 | 95 | 11.3 | 35.4 | 0.00 | 0.00 | 0.00 | 57 | 1010.5 |
| 20260504205828 | 18 | 178 | 14.5 | 35.4 | 0.00 | 0.00 | 0.00 | 56 | 1010.4 |
| 20260504205342 | 18 | 124 | 12.9 | 33.8 | 0.00 | 0.00 | 0.00 | 56 | 1010.4 |
| 20260504204832 | 18 | 150 | 11.3 | 27.4 | 0.00 | 0.00 | 0.00 | 58 | 1010.4 |
| 20260504204323 | 18 | 134 | 12.9 | 27.4 | 0.00 | 0.00 | 0.00 | 58 | 1010.5 |
| 20260504203834 | 18 | 218 | 11.3 | 29.0 | 0.00 | 0.00 | 0.00 | 60 | 1010.4 |
| 20260504203327 | 17 | 138 | 12.9 | 29.0 | 0.00 | 0.00 | 0.00 | 63 | 1010.4 |
| 20260504202821 | 17 | 205 | 9.7 | 25.7 | 0.00 | 0.00 | 0.00 | 64 | 1010.5 |
| 20260504202332 | 17 | 143 | 9.7 | 19.3 | 0.00 | 0.00 | 0.00 | 63 | 1010.6 |
| 20260504201824 | 18 | 198 | 9.7 | 25.7 | 0.00 | 0.00 | 0.00 | 62 | 1010.5 |
| 20260504201319 | 18 | 168 | 12.9 | 25.7 | 0.00 | 0.00 | 0.00 | 62 | 1010.6 |
| 20260504200851 | 17 | 131 | 9.7 | 29.0 | 0.00 | 0.00 | 0.00 | 63 | 1010.6 |
| 20260504200321 | 17 | 157 | 12.9 | 29.0 | 0.00 | 0.00 | 0.00 | 63 | 1010.7 |
| 20260504195812 | 17 | 262 | 16.1 | 29.0 | 0.00 | 0.00 | 0.00 | 61 | 1010.7 |
| 20260504195328 | 18 | 165 | 11.3 | 29.0 | 0.00 | 0.00 | 0.00 | 61 | 1010.8 |
| 20260504194331 | 18 | 181 | 14.5 | 35.4 | 0.00 | 0.00 | 0.00 | 59 | 1010.8 |
| 20260504193826 | 19 | 165 | 14.5 | 22.5 | 0.00 | 0.00 | 0.00 | 56 | 1010.8 |
| 20260504193324 | 20 | 184 | 11.3 | 24.1 | 0.00 | 0.00 | 0.00 | 55 | 1010.8 |
| 20260504192839 | 20 | 169 | 11.3 | 32.2 | 0.00 | 0.00 | 0.00 | 53 | 1011.0 |
| 20260504191822 | 20 | 179 | 11.3 | 25.7 | 0.00 | 0.00 | 0.00 | 52 | 1011.0 |
| 20260504191337 | 20 | 184 | 8.0 | 29.0 | 0.00 | 0.00 | 0.00 | 52 | 1011.2 |
| 20260504190827 | 20 | 238 | 6.4 | 29.0 | 0.00 | 0.00 | 0.00 | 55 | 1011.3 |
| 20260504190318 | 20 | 159 | 9.7 | 17.7 | 0.00 | 0.00 | 0.00 | 56 | 1011.3 |
| 20260504185830 | 20 | 145 | 11.3 | 27.4 | 0.00 | 0.00 | 0.00 | 55 | 1011.4 |
| 20260504185321 | 21 | 161 | 11.3 | 24.1 | 0.00 | 0.00 | 0.00 | 54 | 1011.5 |
| 20260504184813 | 20 | 134 | 9.7 | 25.7 | 0.00 | 0.00 | 0.00 | 54 | 1011.5 |
| 20260504184331 | 20 | 139 | 6.4 | 25.7 | 0.00 | 0.00 | 0.00 | 56 | 1011.6 |
| 20260504183822 | 20 | 202 | 11.3 | 25.7 | 0.00 | 0.00 | 0.00 | 56 | 1011.7 |
| 20260504183314 | 20 | 181 | 9.7 | 20.9 | 0.00 | 0.00 | 0.00 | 56 | 1011.7 |
| 20260504182825 | 20 | 151 | 11.3 | 30.6 | 0.00 | 0.00 | 0.00 | 56 | 1011.8 |
| 20260504182337 | 21 | 171 | 12.9 | 30.6 | 0.00 | 0.00 | 0.00 | 54 | 1011.9 |
| 20260504181811 | 20 | 234 | 9.7 | 24.1 | 0.00 | 0.00 | 0.00 | 56 | 1011.8 |
| 20260504181325 | 20 | 186 | 11.3 | 22.5 | 0.00 | 0.00 | 0.00 | 54 | 1011.9 |
| 20260504180817 | 20 | 119 | 8.0 | 20.9 | 0.00 | 0.00 | 0.00 | 54 | 1012.0 |
| 20260504180314 | 20 | 183 | 6.4 | 20.9 | 0.00 | 0.00 | 0.00 | 55 | 1012.1 |
| 20260504175829 | 21 | 189 | 12.9 | 20.9 | 0.00 | 0.00 | 0.00 | 53 | 1012.1 |
| 20260504175320 | 21 | 143 | 12.9 | 20.9 | 0.00 | 0.00 | 0.00 | 51 | 1012.0 |
| 20260504174854 | 21 | 186 | 6.4 | 25.7 | 0.00 | 0.00 | 0.00 | 51 | 1012.0 |
| 20260504174344 | 21 | 196 | 11.3 | 25.7 | 0.00 | 0.00 | 0.00 | 49 | 1012.2 |
| 20260504173818 | 22 | 172 | 6.4 | 25.7 | 0.00 | 0.00 | 0.00 | 49 | 1012.3 |
| 20260504173329 | 22 | 169 | 11.3 | 24.1 | 0.00 | 0.00 | 0.00 | 44 | 1012.3 |
| 20260504172821 | 22 | 175 | 6.4 | 17.7 | 0.00 | 0.00 | 0.00 | 46 | 1012.2 |
| 20260504172355 | 22 | 148 | 6.4 | 17.7 | 0.00 | 0.00 | 0.00 | 46 | 1012.4 |
| 20260504171825 | 23 | 171 | 8.0 | 25.7 | 0.00 | 0.00 | 0.00 | 30 | 1012.5 |
| 20260504171320 | 23 | 263 | 6.4 | 17.7 | 0.00 | 0.00 | 0.00 | 29 | 1012.5 |
| 20260504170833 | 23 | 167 | 4.8 | 16.1 | 0.00 | 0.00 | 0.00 | 31 | 1012.5 |
| 20260504170322 | 23 | 261 | 3.2 | 24.1 | 0.00 | 0.00 | 0.00 | 30 | 1012.6 |
| 20260504160324 | 22 | 294 | 9.7 | 22.5 | 0.00 | 0.00 | 0.00 | 32 | 1013.3 |
| 20260504150817 | 20 | 209 | 6.4 | 27.4 | 0.00 | 0.00 | 0.00 | 37 | 1013.8 |
| 20260504150329 | 20 | 233 | 12.9 | 27.4 | 0.00 | 0.00 | 0.00 | 36 | 1013.8 |
| 20260504141319 | 18 | 228 | 9.7 | 29.0 | 0.00 | 0.00 | 0.00 | 38 | 1014.2 |
| 20260504140831 | 18 | 263 | 9.7 | 29.0 | 0.00 | 0.00 | 0.00 | 37 | 1014.3 |
| 20260504140322 | 18 | 244 | 11.3 | 20.9 | 0.00 | 0.00 | 0.00 | 39 | 1014.2 |
| 20260504130325 | 15 | 219 | 8.0 | 16.1 | 0.00 | 0.00 | 0.00 | 54 | 1014.8 |
| 20260504110333 | 10 | 247 | 4.8 | 19.3 | 0.00 | 0.00 | 0.00 | 70 | 1015.7 |
| 20260504100318 | 9 | 241 | 8.0 | 24.1 | 0.00 | 0.00 | 0.00 | 66 | 1015.4 |